User: anonymous   Login
Location: Newark
(40.3417°N, 75.9264°W)
Time: 08:08:21
(UTC+00:00)
Language:

CUTE-I - Orbit

View from above orbital plane
View from above orbital plane
View from above satellite
View from above satellite

Ground track
Ground track

The orbit data is extracted from the following two-line orbital elements,

1 27844U 03031E   20157.75398614  .00000045  00000-0  39750-4 0  9997
2 27844  98.6815 165.6663 0011152  89.7114 270.5342 14.22240812878470
Epoch (UTC): 05 June 2020 18:05:44
Eccentricity: 0.0011152
inclination: 98.6815°
perigee height: 810 km
apogee height: 826 km
right ascension of ascending node: 165.6663°
argument of perigee: 89.7114°
revolutions per day: 14.22240812
mean anomaly at epoch: 270.5342°
orbit number at epoch: 87847

The dashed part of the orbit path shows where the satellite is in the earth's shadow,  

DLR